Weather in Baza

Russia / Vologda Oblast     60°36′25″N   40°08′56″E
temp.,
°C
wind,
m/s
gust,
m/s
humid.,
%
clouds,
%
prec.,
mm/h
press.,
hPa
HPBL,
m
25 june, sat
sat2500:00+15nw23880 0.0 101661
03:00+13nw229097 0.0 101746
06:00+18wnw28730 0.0 1017272
09:00+23nnw35540 0.0 1018939
12:00+26nnw474397 0.0 10172550
15:00+23nnw2363100 0.0 1017100
18:00+24nnw12617 0.0 101780
21:00+19ene246943 0.0 101992
26 june, sun
sun2600:00+17e257097 0.0 1020130
03:00+16se25622 0.0 1021135
06:00+16sse256277 0.0 1022128
09:00+20ssw3553100 0.0 1021375
12:00+25wsw25521 0.0 10201087
15:00+24wsw2664100 0.0 1018168
18:00+26wsw36592 0.0 1016757
21:00+21wnw25750 0.0 101687
27 june, mon
mon2700:00+19wnw312715 0.0 1016313
03:00+16nw39865 0.0 1016211
06:00+19n39795 0.0 1018480
09:00+19nne465861 0.0 1020964
12:00+20nne4537100 0.0 10211277
15:00+20nne4533100 0.0 10221511
18:00+19nne354040 0.0 10221409
21:00+13n24650 0.0 102380
28 june, tue
tue2800:00+10n29762 0.0 1025203
03:00+7ne28860 0.0 1027231
06:00+9ne36650 0.0 1028473
09:00+13nne35470 0.0 10281088
12:00+17nne35360 0.0 10271532
15:00+19nne45320 0.0 10271831
18:00+18nne36390 0.0 10261777
21:00+12ne23650 0.0 102747
29 june, wed
wed2900:00+9nne22735 0.0 102814
03:00+7n22760 0.0 102914
06:00+12n13595 0.0 1029157
09:00+17n23395 0.0 10281036
12:00+21nnw233089 0.0 10261466
15:00+23nw3428100 0.0 10251672
18:00+22nw363712 0.0 10231257
21:00+15wnw2761100 0.0 1023109